Other Public Products
Issued by NWS Grand Forks, ND

Home | Current Version | Previous Version | Graphics & Text | Print | Product List | Glossary On
Versions: 1 2 3 4 5 6 7 8 9 10 11 12 13 14 15 16 17 18 19 20 21 22 23 24 25 26 27 28 29 30 31 32 33 34 35 36 37 38 39 40 41 42 43 44 45 46 47 48 49 50
000
FPUS83 KFGF 230431
OPUFGF
PRAIRIE TO PINES WEATHER ROUNDUP
NATIONAL WEATHER SERVICE EASTERN NORTH DAKOTA/GRAND FORKS ND
1100 PM CDT FRI MAY 22 2015

 **SATELLITE DATA USED TO AUGMENT SKY COVER AT AUTOMATED STATIONS**
 *****  WEATHER ACROSS EASTERN NORTH DAKOTA  *****

CITY           SKY/WX    TMP DP  RH WIND       PRES   REMARKS
GRAND FORKS    CLEAR     56  43  61 S6        30.12R
GRAND FORKS AF CLEAR     57  42  56 SW8       30.12S
GRAND CITY NWS   N/A     61 N/A N/A S2          N/A
BUXTON           N/A     63  44  49 S3          N/A
DEVILS LAKE    CLEAR     59  43  55 SE7       30.11S
FARGO          CLEAR     64  41  42 SE9       30.13S
WAHPETON ARPT  PTCLDY    59  36  41 SE5       30.14F
$$

 *****  WEATHER ACROSS CENTRAL AND WESTERN NORTH DAKOTA  *****

CITY           SKY/WX    TMP DP  RH WIND       PRES   REMARKS
JAMESTOWN      PTCLDY    60  38  43 SE9       30.12R
BISMARCK       PTCLDY    62  39  42 S9        30.11R
MINOT          MOCLDY    60  40  47 SE5       30.08R
MINOT AFB      MOCLDY    57  37  47 S3        30.07R
GARRISON         N/A     59  40  49 SE3       30.09R
WILLISTON      PTCLDY    62  37  39 SE5       30.06R
DICKINSON      MOCLDY    50  34  54 SE9       30.08R
HETTINGER      MOCLDY    53  37  54 SE14      30.11R
$$

 *****  OTHER OBSERVATIONS NORTHEAST NORTH DAKOTA  *****

CITY           SKY/WX    TMP DP  RH WIND       PRES   REMARKS
WALHALLA       FAIR      59  36  41 SW5       30.10S
LANGDON        FAIR      52  37  58 S8        30.13S
CAVALIER       FAIR      64  39  39 SW6       30.10S
GRAFTON        FAIR      55  46  71 S7        30.12S
CANDO          FAIR      52  43  71 S7        30.11F
FORT TOTTEN    NOT AVBL
ROLLA          FAIR      54  36  50 S6        30.12S
RUGBY          NOT AVBL
 ***** THE ABOVE OBSERVATIONS ARE NON NWS ARE NOT QUALITY
        CONTROLLED AND MAY MIS-REPORT RAIN FOR SNOW...
$$

 *****  OTHER OBSERVATIONS SOUTHEAST NORTH DAKOTA *****

CITY           SKY/WX    TMP DP  RH WIND       PRES   REMARKS
COOPERSTOWN    NOT AVBL
VALLEY CITY    FAIR      55  36  47 SE3       30.14S
OAKES            N/A     57  43  58 S10       30.14R
GWINNER        NOT AVBL
SHEYENNE NWR     N/A     53  39  58 E5        29.95S
BUFFALO        NOT AVBL
WYNDMERE         N/A     55  34  44 E3          N/A
 ***** THE ABOVE OBSERVATIONS ARE NON NWS ARE NOT QUALITY
       CONTROLLED AND MAY MIS-REPORT RAIN FOR SNOW...
$$

  *****  WEATHER ACROSS NORTHERN MINNESOTA  *****

CITY           SKY/WX    TMP DP  RH WIND       PRES   REMARKS
FLAG ISLAND    NOT AVBL
WARROAD        PTCLDY    64  45  48 SW7       30.11S
ROSEAU         PTCLDY    59  45  58 SW7       30.11S
HALLOCK        PTCLDY    57  45  62 SW9       30.10S
THF RVR FALLS  CLEAR     61  37  41 SW3       30.14S
HALSTAD          N/A     56  37  49 S7          N/A
FOSSTON        CLEAR     54  39  58 CALM      30.16S
BAUDETTE       PTCLDY    57  42  57 S3        30.11S
WASKISH        CLEAR     63  39  42 CALM      30.13S
CROOKSTON      CLEAR     63  39  42 CALM      30.14S
$$
  *****  WEATHER ACROSS CENTRAL AND WEST MINNESOTA  *****

CITY           SKY/WX    TMP DP  RH WIND       PRES   REMARKS
BEMIDJI        CLEAR     58  42  55 SW5       30.15F
PARK RAPIDS    CLEAR     59  39  47 CALM      30.17R
WADENA         PTCLDY    55  41  58 CALM      30.17S
DETROIT LAKES  PTCLDY    59  43  55 CALM      30.17F
MOORHEAD       CLEAR     61  41  48 SE6       30.15S
FERGUS FALLS   MOCLDY    63  37  39 E6        30.16S
ELBOW LAKE     FAIR      61  40  45 SE6       30.16S
MORRIS MN      MOCLDY    57  43  58 E9        30.15S
STAPLES        CLEAR     55  37  50 CALM      30.18S
WHEATON        MOCLDY    55  39  54 SE8       30.16S
$$
  *****  WEATHER ELSEWHERE ACROSS MINNESOTA  *****

CITY           SKY/WX    TMP DP  RH WIND       PRES   REMARKS
DULUTH         CLEAR     56  37  49 SW6       30.18S
INTRNTL FALLS  MOCLDY    60  38  43 W5        30.11S
ELY            CLEAR     55  36  47 CALM      30.14S
CLOQUET        CLEAR     52  41  66 CALM      30.19S
BRAINERD       CLEAR     53  42  66 CALM      30.19R
HIBBING        CLEAR     47  36  65 S3        30.16R
ALEXANDRIA     PTCLDY    60  37  42 SE8       30.19R
SAINT CLOUD    PTCLDY    52  44  74 CALM      30.19S
MINNEAPOLIS    MOCLDY    63  38  39 SE6       30.20R
$$

  *****  WEATHER ACROSS SOUTH DAKOTA  *****

CITY           SKY/WX    TMP DP  RH WIND       PRES   REMARKS
SIOUX FALLS    CLOUDY    57  43  59 S3        30.19S
BROOKINGS      CLOUDY    55  43  62 CALM      30.22S
WATERTOWN      PTCLDY    56  43  61 SW9       30.20R
HURON          PTCLDY    53  42  66 S5        30.19R
SISSETON         N/A     60  40  47 SW5       30.14R
ABERDEEN       MOCLDY    58  44  60 S14       30.16R
MITCHELL       CLOUDY    54  46  74 NE3       30.19R
PIERRE         PTCLDY    50  41  71 S12       30.15R
MOBRIDGE       PTCLDY    57  45  64 S10       30.11R
RAPID CITY     CLOUDY    50  43  77 S10       30.09S
$$

  *****  SOME WEATHER IN NEARBY STATES *****

CITY           SKY/WX    TMP DP  RH WIND       PRES   REMARKS
GLASGOW MT     CLOUDY    64  41  42 E10       29.98R
GREAT FALLS MT CLEAR     52  46  80 NE8       29.95R
CHEYENNE WY    CLOUDY    44  43  96 SE9       30.05R FOG
SCOTTSBLUFF NE CLOUDY    46  45  96 SE13      30.08R
OMAHA NE       CLOUDY    60  49  66 SE7       30.20R
DES MOINES IA  CLOUDY    64  46  52 CALM      30.22S
DAVENPORT IA   CLOUDY    62  43  49 SE5       30.24R
CHICAGO IL     CLOUDY    52  32  46 E7        30.29R
EAU CLAIRE WI  MOCLDY    50  39  66 CALM      30.21S
LA CROSSE WI   CLOUDY    57  44  62 E3        30.22R
$$

  *****  SOME NATIONAL WEATHER *****

CITY           SKY/WX    TMP DP  RH WIND       PRES   REMARKS
LA GUARDIA NY  CLEAR     61  34  36 NW13G22   30.14R
RALEIGH NC     PTCLDY    55  47  74 CALM      30.28S
ATLANTA GA     CLEAR     69  52  54 E3        30.26S
NEW ORLEANS LA PTCLDY    75  67  76 SE5       30.17S
OKLAHOMA CITY  DRIZZLE   56  55  97 SE12      30.15R FOG
ALBUQUERQUE NM PTCLDY    66  28  24 SE14      29.93R
SALT LAKE CITY MOCLDY    56  41  57 SE6       29.90R
LOS ANGELES CA CLOUDY    61  54  77 SW9       30.06R
BOISE ID       CLOUDY    64  50  60 SE6       29.83R
SEATTLE WA     CLOUDY    55  49  80 SW8       30.04R
$$

*** WEATHER ACROSS MANITOBA...SASKATCHEWAN AND ONTARIO ***
                ***ONTARIO***

CITY           SKY/WX    TMP DP  RH WIND       PRES   REMARKS
GERALDTON      PTCLDY    45  23  42 S8        30.10F
THUNDER BAY    CLEAR     41  32  70 NE7       30.14S
SIOUX LOOKOUT  PTCLDY    63  39  42 W5        30.02S
TORONTO        CLEAR     43  23  45 N6        30.31S
BIG TROUT LK   CLEAR     45  34  65 S3        29.87F
PICKLE LAKE    NOT AVBL
DRYDEN         MOCLDY    63  43  48 SW9       30.04F
KENORA         PTCLDY    61  39  44 SW8       30.07F
$$
                *** MANITOBA***

CITY           SKY/WX    TMP DP  RH WIND       PRES   REMARKS
BRANDON        PTCLDY    64  37  36 S6        30.08S
DAUPHIN        CLEAR     64  36  34 SW10      30.02S
ISLAND LAKE    PTCLDY    55  36  47 W2        29.93S
PILOT MOUND      N/A     52  37  58 S9          N/A
THE PAS        CLOUDY    63  37  39 SW5       29.91F
THOMPSON       MOCLDY    55  41  58 E14G22    29.98R
WINNIPEG       PTCLDY    66  39  37 SW10      30.06F
LYNN LAKE      PTCLDY    52  37  58 NE13G18   30.04R
CHURCHILL      SNOWSHWR  32  30  93 N16       30.12R FOG     WCI  21
GILLAM         CLOUDY    36  34  93 NE8       30.05R
$$
                ***SASKATCHEWAN***

CITY           SKY/WX    TMP DP  RH WIND       PRES   REMARKS
ESTEVAN        PTCLDY    55  41  58 S8        30.07S
KINDERSLEY     PTCLDY    59  27  29 SE13      30.02R
LLOYDMINSTER   PTCLDY    64  28  25 CALM      30.02R
PRINCE ALBERT  PTCLDY    61  41  48 S3        29.99R
REGINA         PTCLDY    64  36  34 SE6       30.05R



USA.gov is the U.S. government's official web portal to all federal, state and local government web resources and services.